| time (UTC) | temp C | wind direction | speed KPH | gust KPH | rain 1hr cm | rain 24hr cm | rain mn cm | humidity % | barometer mb |
| 20260502224840 | 25 | 11 | 11.3 | 20.9 | 0.00 | 0.00 | 0.00 | 16 | 1013.0 |
| 20260502223940 | 24 | 24 | 12.9 | 19.3 | 0.00 | 0.00 | 0.00 | 16 | 1013.0 |
| 20260502223040 | 24 | 17 | 8.0 | 19.3 | 0.00 | 0.00 | 0.00 | 17 | 1013.2 |
| 20260502222140 | 23 | 49 | 8.0 | 16.1 | 0.00 | 0.00 | 0.00 | 18 | 1013.4 |
| 20260502221240 | 23 | 69 | 8.0 | 14.5 | 0.00 | 0.00 | 0.00 | 17 | 1013.4 |
| 20260502220340 | 24 | 77 | 9.7 | 20.9 | 0.00 | 0.00 | 0.00 | 16 | 1013.6 |
| 20260502215440 | 24 | 93 | 6.4 | 17.7 | 0.00 | 0.00 | 0.00 | 18 | 1013.6 |
| 20260502214540 | 24 | 73 | 9.7 | 19.3 | 0.00 | 0.00 | 0.00 | 17 | 1013.8 |
| 20260502213640 | 24 | 72 | 11.3 | 20.9 | 0.00 | 0.00 | 0.00 | 18 | 1014.0 |
| 20260502212740 | 24 | 81 | 4.8 | 16.1 | 0.00 | 0.00 | 0.00 | 21 | 1014.2 |
| 20260502210940 | 24 | 80 | 4.8 | 14.5 | 0.00 | 0.00 | 0.00 | 19 | 1014.2 |
| 20260502210039 | 24 | 94 | 4.8 | 12.9 | 0.00 | 0.00 | 0.00 | 21 | 1014.4 |
| 20260502205140 | 24 | 91 | 6.4 | 14.5 | 0.00 | 0.00 | 0.00 | 18 | 1014.5 |
| 20260502201540 | 25 | 128 | 1.6 | 9.7 | 0.00 | 0.00 | 0.00 | 20 | 1015.1 |
| 20260502195746 | 24 | 217 | 3.2 | 9.7 | 0.00 | 0.00 | 0.00 | 22 | 1015.5 |
| 20260502194839 | 23 | 329 | 4.8 | 12.9 | 0.00 | 0.00 | 0.00 | 18 | 1015.3 |
| 20260502193940 | 23 | 86 | 4.8 | 16.1 | 0.00 | 0.00 | 0.00 | 18 | 1015.5 |
| 20260502193039 | 23 | 99 | 8.0 | 24.1 | 0.00 | 0.00 | 0.00 | 18 | 1015.7 |
| 20260502192140 | 23 | 112 | 6.4 | 20.9 | 0.00 | 0.00 | 0.00 | 24 | 1015.9 |
| 20260502191240 | 23 | 138 | 6.4 | 12.9 | 0.00 | 0.00 | 0.00 | 22 | 1016.0 |
| 20260502190340 | 23 | 106 | 3.2 | 12.9 | 0.00 | 0.00 | 0.00 | 24 | 1016.1 |
| 20260502184539 | 23 | 115 | 3.2 | 11.3 | 0.00 | 0.00 | 0.00 | 26 | 1016.2 |
| 20260502183640 | 23 | 147 | 6.4 | 16.1 | 0.00 | 0.00 | 0.00 | 27 | 1016.6 |
| 20260502182739 | 22 | 103 | 4.8 | 12.9 | 0.00 | 0.00 | 0.00 | 25 | 1016.6 |
| 20260502181839 | 22 | 179 | 6.4 | 19.3 | 0.00 | 0.00 | 0.00 | 26 | 1016.8 |
| 20260502180940 | 22 | 134 | 6.4 | 16.1 | 0.00 | 0.00 | 0.00 | 25 | 1016.7 |
| 20260502163939 | 17 | 96 | 9.7 | 16.1 | 0.00 | 0.00 | 0.00 | 42 | 1017.4 |
| 20260502163039 | 17 | 100 | 9.7 | 17.7 | 0.00 | 0.00 | 0.00 | 42 | 1017.5 |
| 20260502162139 | 16 | 95 | 9.7 | 17.7 | 0.00 | 0.00 | 0.00 | 43 | 1017.4 |
| 20260502161240 | 16 | 85 | 8.0 | 12.9 | 0.00 | 0.00 | 0.00 | 45 | 1017.5 |
| 20260502160339 | 16 | 91 | 9.7 | 16.1 | 0.00 | 0.00 | 0.00 | 47 | 1017.6 |
| 20260502151839 | 12 | 87 | 9.7 | 17.7 | 0.00 | 0.00 | 0.00 | 56 | 1018.0 |
| 20260502150939 | 11 | 75 | 11.3 | 16.1 | 0.00 | 0.00 | 0.00 | 53 | 1018.0 |
| 20260502130339 | 6 | 59 | 8.0 | 14.5 | 0.00 | 0.00 | 0.00 | 54 | 1017.5 |
| 20260502123639 | 6 | 42 | 11.3 | 16.1 | 0.00 | 0.00 | 0.00 | 54 | 1017.3 |
| 20260502122739 | 6 | 45 | 11.3 | 17.7 | 0.00 | 0.00 | 0.00 | 54 | 1017.3 |
| 20260502121839 | 5 | 45 | 11.3 | 17.7 | 0.00 | 0.00 | 0.00 | 55 | 1017.4 |
| 20260502120939 | 5 | 45 | 9.7 | 17.7 | 0.00 | 0.00 | 0.00 | 55 | 1017.5 |
| 20260502115139 | 6 | 42 | 9.7 | 14.5 | 0.00 | 0.00 | 0.00 | 54 | 1017.4 |
| 20260502114239 | 5 | 36 | 9.7 | 17.7 | 0.00 | 0.00 | 0.00 | 55 | 1017.2 |
| 20260502113339 | 6 | 40 | 12.9 | 20.9 | 0.00 | 0.00 | 0.00 | 53 | 1017.5 |
| 20260502112439 | 6 | 37 | 9.7 | 16.1 | 0.00 | 0.00 | 0.00 | 54 | 1017.5 |
| 20260502111539 | 5 | 33 | 9.7 | 16.1 | 0.00 | 0.00 | 0.00 | 56 | 1017.2 |
| 20260502110639 | 5 | 33 | 11.3 | 17.7 | 0.00 | 0.00 | 0.00 | 55 | 1017.4 |
| 20260502105739 | 6 | 41 | 9.7 | 16.1 | 0.00 | 0.00 | 0.00 | 53 | 1017.5 |
| 20260502104839 | 5 | 32 | 9.7 | 14.5 | 0.00 | 0.00 | 0.00 | 54 | 1017.1 |
| 20260502103039 | 5 | 24 | 6.4 | 12.9 | 0.00 | 0.00 | 0.00 | 56 | 1017.3 |
| 20260502102139 | 5 | 14 | 3.2 | 9.7 | 0.00 | 0.00 | 0.00 | 54 | 1017.4 |
| 20260502101239 | 6 | 27 | 4.8 | 9.7 | 0.00 | 0.00 | 0.00 | 51 | 1017.3 |
| 20260502100339 | 6 | 28 | 4.8 | 9.7 | 0.00 | 0.00 | 0.00 | 50 | 1017.3 |
| 20260502071239 | 8 | 58 | 3.2 | 6.4 | 0.00 | 0.00 | 0.00 | 48 | 1017.4 |
| 20260502070339 | 8 | 48 | 4.8 | 8.0 | 0.00 | 0.00 | 0.00 | 48 | 1017.4 |
| 20260502065439 | 7 | 54 | 4.8 | 6.4 | 0.00 | 0.00 | 0.00 | 52 | 1017.4 |
| 20260502064539 | 7 | 66 | 1.6 | 6.4 | 0.00 | 0.00 | 0.00 | 55 | 1017.5 |
| 20260502063639 | 7 | 73 | 1.6 | 3.2 | 0.00 | 0.00 | 0.00 | 54 | 1017.3 |
| 20260502062739 | 7 | 46 | 4.8 | 8.0 | 0.00 | 0.00 | 0.00 | 54 | 1017.2 |
| 20260502061839 | 7 | 54 | 3.2 | 6.4 | 0.00 | 0.00 | 0.00 | 54 | 1017.2 |
| 20260502060939 | 7 | 45 | 1.6 | 4.8 | 0.00 | 0.00 | 0.00 | 53 | 1017.3 |
| 20260502055139 | 7 | 83 | 1.6 | 3.2 | 0.00 | 0.00 | 0.00 | 50 | 1017.5 |
| 20260502054239 | 8 | 76 | 1.6 | 3.2 | 0.00 | 0.00 | 0.00 | 48 | 1017.5 |
| 20260502053339 | 8 | 69 | 1.6 | 3.2 | 0.00 | 0.00 | 0.00 | 48 | 1017.4 |
| 20260502052439 | 8 | 79 | 1.6 | 4.8 | 0.00 | 0.00 | 0.00 | 46 | 1017.5 |
| 20260502051539 | 9 | 87 | 0.0 | 4.8 | 0.00 | 0.00 | 0.00 | 42 | 1017.4 |
| 20260502050639 | 11 | 86 | 1.6 | 3.2 | 0.00 | 0.00 | 0.00 | 41 | 1017.3 |
| 20260502044839 | 10 | 60 | 0.0 | 1.6 | 0.00 | 0.00 | 0.00 | 43 | 1017.3 |
| 20260502043942 | 10 | 62 | 0.0 | 1.6 | 0.00 | 0.00 | 0.00 | 43 | 1017.3 |
| 20260502043039 | 10 | 60 | 0.0 | 3.2 | 0.00 | 0.00 | 0.00 | 45 | 1017.3 |
| 20260502042139 | 10 | 68 | 0.0 | 3.2 | 0.00 | 0.00 | 0.00 | 45 | 1017.2 |
| 20260502041240 | 10 | 75 | 0.0 | 3.2 | 0.00 | 0.00 | 0.00 | 45 | 1017.1 |
| 20260502040339 | 10 | 65 | 0.0 | 3.2 | 0.00 | 0.00 | 0.00 | 44 | 1017.0 |
| 20260502035439 | 10 | 71 | 0.0 | 1.6 | 0.00 | 0.00 | 0.00 | 42 | 1017.1 |
| 20260502034539 | 11 | 71 | 0.0 | 1.6 | 0.00 | 0.00 | 0.00 | 42 | 1017.0 |
| 20260502033639 | 10 | 72 | 1.6 | 3.2 | 0.00 | 0.00 | 0.00 | 43 | 1016.9 |
| 20260502032739 | 11 | 76 | 0.0 | 1.6 | 0.00 | 0.00 | 0.00 | 41 | 1016.8 |
| 20260502031839 | 11 | 77 | 0.0 | 1.6 | 0.00 | 0.00 | 0.00 | 41 | 1016.7 |
| 20260502030939 | 11 | 69 | 1.6 | 3.2 | 0.00 | 0.00 | 0.00 | 41 | 1016.7 |
| 20260502030039 | 12 | 65 | 1.6 | 3.2 | 0.00 | 0.00 | 0.00 | 41 | 1016.5 |
| 20260502025139 | 13 | 72 | 3.2 | 4.8 | 0.00 | 0.00 | 0.00 | 40 | 1016.5 |
| 20260502024239 | 14 | 75 | 1.6 | 3.2 | 0.00 | 0.00 | 0.00 | 38 | 1016.5 |
| 20260502023339 | 14 | 75 | 1.6 | 3.2 | 0.00 | 0.00 | 0.00 | 37 | 1016.3 |
| 20260502022439 | 15 | 75 | 1.6 | 3.2 | 0.00 | 0.00 | 0.00 | 35 | 1016.5 |
| 20260502021539 | 17 | 76 | 1.6 | 3.2 | 0.00 | 0.00 | 0.00 | 32 | 1016.4 |
| 20260502020639 | 18 | 77 | 0.0 | 1.6 | 0.00 | 0.00 | 0.00 | 30 | 1016.6 |
| 20260502014839 | 20 | 102 | 3.2 | 6.4 | 0.00 | 0.00 | 0.00 | 27 | 1016.5 |
| 20260502013039 | 21 | 101 | 3.2 | 11.3 | 0.00 | 0.00 | 0.00 | 28 | 1016.5 |
| 20260502012139 | 21 | 100 | 1.6 | 6.4 | 0.00 | 0.00 | 0.00 | 26 | 1016.4 |
| 20260502011239 | 21 | 92 | 1.6 | 4.8 | 0.00 | 0.00 | 0.00 | 23 | 1016.6 |
| 20260502004539 | 21 | 128 | 1.6 | 4.8 | 0.00 | 0.00 | 0.00 | 24 | 1016.7 |
| 20260502003639 | 21 | 87 | 3.2 | 9.7 | 0.00 | 0.00 | 0.00 | 25 | 1016.8 |
| 20260502002739 | 22 | 123 | 1.6 | 4.8 | 0.00 | 0.00 | 0.00 | 25 | 1016.8 |
| 20260502001839 | 21 | 107 | 1.6 | 11.3 | 0.00 | 0.00 | 0.00 | 24 | 1016.9 |
| 20260502000039 | 21 | 104 | 3.2 | 9.7 | 0.00 | 0.00 | 0.00 | 25 | 1017.0 |
| 20260501232439 | 21 | 116 | 3.2 | 14.5 | 0.00 | 0.00 | 0.00 | 23 | 1017.3 |
| 20260501225738 | 21 | 197 | 3.2 | 9.7 | 0.00 | 0.00 | 0.00 | 28 | 1017.7 |